Вернуться в каталог

FENGYUN 1C DEB

LostPO
NORAD 31911·DEBRIS·🇨🇳 China

Запущен May 10, 1999 с Taiyuan Satellite Launch Center

Loading…

Ближайшие Пролёты (ближайшие 24 часа)

TLE

УстаревшееSource: Space-Track

Эпоха: Oct 2, 2022, 10:17 UTC

1 31911U 99025CLN 22275.42902484  .00001092  00000-0  12100-2 0  9999
2 31911  98.7290 129.0954 0540136 148.3093 215.1774 13.23731655739786

Отслеживайте FENGYUN 1C DEB в реальном времени с AllMySat

Download on the App Store